Location: ??????
(38.1303°N, 24.0039°E)
Time: 05:38:54
(UTC+00:00)

PAYLOAD A - Pass Details

Date: 20 June 2021
Orbit: 692 x 831 km, 98.4° (Epoch: 30 July)

Event Time Altitude Azimuth Distance (km) Brightness Sun altitude
Rises 01:51:47 0° 15° (NNE) 3,205 8.3 -11.7°
Reaches altitude 10° 01:54:04 10° 19° (NNE) 2,298 7.5 -11.4°
Maximum altitude 01:59:07 68° 102° (ESE) 843 4.4 -10.7°
Drops below altitude 10° 02:04:20 10° 185° (S) 2,369 6.1 -9.9°
Enters shadow 02:06:04 - 187° (S) 3,056 6.7 -9.6°
